When you browse on this site, cookies collect data to enhance your experience and personalize the content and advertising you see.
Visit our Privacy Policy to learn more. By continuing to use the site, you agree to this use of cookies and data.
  • In Spain
  • List of Countries
  • For 7 days
  • Water Temperature
  • Satellite Maps
  • Weather Map
  • Weather Widgets
  • user-avatar
    Login

    Hourly Weather Ali Bayramli

    Today, 18 February, Monday

    Time Temperature Precipitation Wind Pressure Humidity
    00:00 +5°C° 0 mm 2 mps 759 mmHg 93%
    01:00 +4°C° 0 mm 3 mps 758 mmHg 92%
    02:00 +3°C° 0 mm 3 mps 758 mmHg 92%
    03:00 +2°C° 0 mm 5 mps 757 mmHg 87%
    04:00 +2°C° 0 mm 5 mps 757 mmHg 82%
    05:00 +3°C° 0 mm 5 mps 757 mmHg 77%
    06:00 +3°C° 0 mm 6 mps 756 mmHg 72%
    07:00 +4°C° 0 mm 7 mps 756 mmHg 64%
    08:00 +6°C° 0 mm 7 mps 756 mmHg 56%
    09:00 +9°C° 0 mm 8 mps 755 mmHg 45%
    10:00 +10°C° 0 mm 8 mps 755 mmHg 42%
    11:00 +11°C° 0 mm 9 mps 754 mmHg 39%
    12:00 +12°C° 0 mm 9 mps 754 mmHg 36%
    13:00 +13°C° 0 mm 8 mps 753 mmHg 35%
    14:00 +14°C° 0 mm 7 mps 753 mmHg 34%
    15:00 +15°C° 0 mm 7 mps 752 mmHg 32%
    16:00 +14°C° 0 mm 5 mps 753 mmHg 36%
    17:00 +12°C° 0 mm 4 mps 753 mmHg 41%
    18:00 +12°C° 0 mm 2 mps 753 mmHg 45%
    19:00 +9°C° 0 mm 5 mps 754 mmHg 55%
    20:00 +6°C° 0 mm 7 mps 754 mmHg 65%
    21:00 +5°C° 0 mm 9 mps 755 mmHg 75%
    22:00 +5°C° 0.2 mm 9 mps 755 mmHg 72%
    23:00 +4°C° 0.2 mm 8 mps 756 mmHg 70%

    Tomorrow, 19 February, Tuesday

    Time Temperature Precipitation Wind Pressure Humidity
    00:00 +4°C° 0.2 mm 8 mps 756 mmHg 67%
    01:00 +2°C° 0.3 mm 8 mps 757 mmHg 68%
    02:00 +2°C° 0.3 mm 9 mps 757 mmHg 69%
    03:00 +2°C° 0.3 mm 9 mps 757 mmHg 70%
    04:00 +1°C° 0.6 mm 9 mps 758 mmHg 72%
    05:00 +1°C° 0.6 mm 9 mps 758 mmHg 75%
    06:00 0°C° 0.6 mm 9 mps 758 mmHg 77%
    07:00 0°C° 0.4 mm 8 mps 759 mmHg 77%
    08:00 0°C° 0.4 mm 8 mps 760 mmHg 78%
    09:00 0°C° 0.4 mm 7 mps 761 mmHg 79%
    10:00 0°C° 0.1 mm 7 mps 761 mmHg 76%
    11:00 +2°C° 0.1 mm 7 mps 762 mmHg 73%
    12:00 +2°C° 0.1 mm 7 mps 762 mmHg 70%
    13:00 +3°C° 0 mm 6 mps 763 mmHg 68%
    14:00 +3°C° 0 mm 6 mps 763 mmHg 66%
    15:00 +3°C° 0 mm 6 mps 763 mmHg 63%
    16:00 +3°C° 0 mm 6 mps 764 mmHg 64%
    17:00 +2°C° 0 mm 6 mps 765 mmHg 64%
    18:00 +1°C° 0 mm 6 mps 765 mmHg 64%
    19:00 +1°C° 0 mm 6 mps 766 mmHg 63%
    20:00 +1°C° 0 mm 6 mps 767 mmHg 62%
    21:00 +1°C° 0 mm 6 mps 767 mmHg 61%
    22:00 +1°C° 0 mm 6 mps 768 mmHg 60%
    23:00 +1°C° 0 mm 6 mps 768 mmHg 60%

    Day after tomorrow, 20 February, Wednesday

    Time Temperature Precipitation Wind Pressure Humidity
    00:00 +1°C° 0 mm 6 mps 768 mmHg 60%
    01:00 +1°C° 0 mm 5 mps 769 mmHg 61%
    02:00 0°C° 0 mm 4 mps 769 mmHg 63%
    03:00 +1°C° 0 mm 3 mps 769 mmHg 64%
    04:00 +1°C° 0 mm 3 mps 769 mmHg 67%
    05:00 +2°C° 0 mm 2 mps 769 mmHg 69%
    06:00 +1°C° 0 mm 2 mps 769 mmHg 72%
    07:00 +2°C° 0 mm 2 mps 770 mmHg 68%
    08:00 +3°C° 0 mm 2 mps 770 mmHg 64%
    09:00 +4°C° 0 mm 2 mps 770 mmHg 61%
    10:00 +5°C° 0 mm 2 mps 770 mmHg 60%
    11:00 +6°C° 0 mm 2 mps 770 mmHg 58%
    12:00 +7°C° 0 mm 2 mps 769 mmHg 57%
    13:00 +7°C° 0 mm 2 mps 769 mmHg 57%
    14:00 +8°C° 0 mm 2 mps 768 mmHg 57%
    15:00 +8°C° 0 mm 3 mps 767 mmHg 57%
    16:00 +8°C° 0 mm 3 mps 767 mmHg 61%
    17:00 +8°C° 0 mm 3 mps 767 mmHg 64%
    18:00 +8°C° 0 mm 3 mps 767 mmHg 68%
    19:00 +8°C° 0 mm 3 mps 767 mmHg 69%
    20:00 +8°C° 0 mm 3 mps 767 mmHg 71%
    21:00 +8°C° 0 mm 3 mps 766 mmHg 72%
    22:00 +8°C° 0 mm 3 mps 766 mmHg 74%
    23:00 +7°C° 0 mm 3 mps 766 mmHg 75%

    21 February, Thursday

    Time Temperature Precipitation Wind Pressure Humidity
    00:00 +7°C° 0 mm 2 mps 765 mmHg 77%
    01:00 +7°C° 0 mm 2 mps 765 mmHg 79%
    02:00 +7°C° 0 mm 2 mps 764 mmHg 80%
    03:00 +7°C° 0 mm 2 mps 764 mmHg 82%
    04:00 +6°C° 0 mm 2 mps 764 mmHg 83%
    05:00 +5°C° 0 mm 2 mps 763 mmHg 83%
    06:00 +5°C° 0 mm 2 mps 763 mmHg 84%
    07:00 +4°C° 0 mm 3 mps 763 mmHg 79%
    08:00 +5°C° 0 mm 3 mps 763 mmHg 73%
    09:00 +5°C° 0 mm 3 mps 764 mmHg 68%
    10:00 +8°C° 0 mm 3 mps 763 mmHg 63%
    11:00 +9°C° 0 mm 3 mps 763 mmHg 58%
    12:00 +10°C° 0 mm 3 mps 762 mmHg 53%
    13:00 +10°C° 0 mm 3 mps 762 mmHg 50%
    14:00 +11°C° 0 mm 3 mps 761 mmHg 46%
    15:00 +11°C° 0 mm 3 mps 761 mmHg 42%
    16:00 +12°C° 0 mm 2 mps 761 mmHg 45%
    17:00 +10°C° 0 mm 2 mps 761 mmHg 48%
    18:00 +9°C° 0 mm 2 mps 761 mmHg 51%
    19:00 +9°C° 0 mm 2 mps 761 mmHg 56%
    20:00 +8°C° 0 mm 2 mps 761 mmHg 61%
    21:00 +8°C° 0 mm 3 mps 762 mmHg 66%
    22:00 +7°C° 0 mm 3 mps 762 mmHg 68%
    23:00 +7°C° 0 mm 3 mps 761 mmHg 70%

    22 February, Friday

    Time Temperature Precipitation Wind Pressure Humidity
    00:00 +7°C° 0 mm 3 mps 761 mmHg 71%
    01:00 +5°C° 0 mm 3 mps 761 mmHg 69%
    02:00 +5°C° 0 mm 3 mps 761 mmHg 66%
    03:00 +5°C° 0 mm 4 mps 761 mmHg 63%
    04:00 +4°C° 0 mm 4 mps 761 mmHg 60%
    05:00 +4°C° 0 mm 3 mps 761 mmHg 56%
    06:00 +4°C° 0 mm 3 mps 761 mmHg 53%
    07:00 +5°C° 0 mm 4 mps 761 mmHg 48%
    08:00 +6°C° 0 mm 4 mps 762 mmHg 43%
    09:00 +8°C° 0 mm 4 mps 762 mmHg 39%
    10:00 +10°C° 0 mm 4 mps 762 mmHg 36%
    11:00 +12°C° 0 mm 5 mps 762 mmHg 33%
    12:00 +13°C° 0 mm 5 mps 762 mmHg 30%
    13:00 +14°C° 0 mm 4 mps 761 mmHg 29%
    14:00 +14°C° 0 mm 4 mps 761 mmHg 29%
    15:00 +14°C° 0 mm 3 mps 760 mmHg 28%
    16:00 +13°C° 0 mm 3 mps 760 mmHg 35%
    17:00 +11°C° 0 mm 3 mps 761 mmHg 42%
    18:00 +10°C° 0 mm 3 mps 761 mmHg 49%
    19:00 +9°C° 0 mm 3 mps 761 mmHg 55%
    20:00 +8°C° 0 mm 3 mps 761 mmHg 60%
    21:00 +7°C° 0 mm 4 mps 761 mmHg 66%
    22:00 +7°C° 0 mm 3 mps 761 mmHg 67%
    23:00 +7°C° 0 mm 3 mps 761 mmHg 68%

    23 February, Saturday

    Time Temperature Precipitation Wind Pressure Humidity
    00:00 +7°C° 0 mm 3 mps 761 mmHg 69%
    01:00 +6°C° 0 mm 2 mps 761 mmHg 71%
    02:00 +6°C° 0 mm 2 mps 761 mmHg 73%
    03:00 +7°C° 0 mm 1 mps 760 mmHg 75%
    04:00 +6°C° 0 mm 1 mps 760 mmHg 77%
    05:00 +6°C° 0 mm 1 mps 760 mmHg 80%
    06:00 +6°C° 0 mm 1 mps 760 mmHg 82%
    07:00 +6°C° 0 mm 2 mps 760 mmHg 75%
    08:00 +7°C° 0 mm 2 mps 760 mmHg 68%
    09:00 +8°C° 0 mm 3 mps 760 mmHg 61%
    10:00 +10°C° 0 mm 4 mps 760 mmHg 53%
    11:00 +11°C° 0 mm 4 mps 759 mmHg 45%
    12:00 +12°C° 0 mm 5 mps 759 mmHg 37%
    13:00 +13°C° 0 mm 5 mps 758 mmHg 34%
    14:00 +14°C° 0 mm 5 mps 758 mmHg 31%
    15:00 +14°C° 0 mm 5 mps 758 mmHg 28%
    16:00 +13°C° 0 mm 4 mps 758 mmHg 30%
    17:00 +13°C° 0 mm 4 mps 758 mmHg 33%
    18:00 +12°C° 0 mm 3 mps 758 mmHg 36%
    19:00 +11°C° 0 mm 4 mps 758 mmHg 41%
    20:00 +10°C° 0 mm 4 mps 758 mmHg 47%
    21:00 +10°C° 0 mm 4 mps 758 mmHg 53%
    22:00 +8°C° 0 mm 4 mps 758 mmHg 53%
    23:00 +9°C° 0 mm 3 mps 758 mmHg 54%
    Show more